Location: Babraham
(52.1167°N, 0.2000°E)
Time: 11:30:46
(UTC+00:00)

Daily predictions for brighter satellites

Satellite Brightness Start Highest point End
(mag) Time Altitude Azimuth Time Altitude Azimuth Time Altitude Azimuth
Meteor 2-3 Rocket 4.1 16:23:14 10° NNW 16:28:52 73° W 16:34:32 10° S
Cosmos 2084 Rocket 3.6 16:25:15 10° NW 16:29:05 67° SW 16:32:51 10° SE
ISS -3.5 16:26:58 10° W 16:30:19 70° SSW 16:33:40 10° ESE
Cosmos 2279 Rocket 4.2 16:25:35 10° N 16:31:40 49° ENE 16:37:41 10° SSE
Aureole 3 Rocket 3.2 16:27:27 10° N 16:32:48 65° ENE 16:36:40 10° SSE
Meteor 1-27 4.3 16:28:59 10° S 16:34:31 59° E 16:40:01 10° NNE
Spot 4 Rocket 4.4 16:30:23 10° S 16:35:30 72° WSW 16:40:39 10° NNW
ATLAS CENTAUR R/B 2.2 16:33:22 10° WNW 16:36:46 62° NNE 16:43:07 10° ESE
Cosmos 2237 Rocket 3.8 16:32:16 10° NW 16:37:31 41° WSW 16:42:44 10° S
Cosmos 1606 2.5 16:34:21 10° S 16:37:58 75° E 16:41:38 10° NNE
Cosmos 2058 Rocket 3.9 16:35:59 10° SSE 16:39:55 32° E 16:43:50 10° NNE
Cosmos 405 Rocket 3.2 16:43:12 10° SSE 16:46:45 39° E 16:50:22 10° NNE
Cosmos 1140 Rocket 4.2 16:43:22 10° NNW 16:48:00 31° NE 16:52:34 10° ESE
Cosmos 2150 Rocket 4.0 16:43:13 10° SSW 16:48:23 86° ESE 16:53:38 10° NNE
USA 306 1.2 16:49:33 10° WNW 16:51:50 83° SSW 16:53:59 10° ESE
Cosmos 1606 Rocket 3.6 16:48:22 10° S 16:52:50 89° WNW 16:57:18 10° N
SJ-7 4.3 16:49:53 10° SSE 16:53:51 81° ENE 16:57:54 10° NNW
SMAP 3.1 16:50:03 10° SSE 16:54:38 61° ENE 16:59:15 10° N
Cosmos 1726 Rocket 3.5 16:50:32 10° S 16:54:57 75° E 16:59:25 10° NNE
Cosmos 1500 3.2 16:54:19 10° N 16:57:46 47° ENE 17:01:11 10° SSE
Cosmos 1437 Rocket 2.5 16:58:18 10° NNW 17:02:01 83° ENE 17:05:45 10° SSE
Cosmos-2242 4.3 16:59:15 10° SE 17:02:28 21° E 17:05:03 13° NE
CZ-2D R/B 3.5 16:59:12 10° S 17:02:52 68° WSW 17:06:33 10° NNW
SL-8 R/B 4.3 17:02:22 10° W 17:07:02 54° S 17:11:42 10° ESE
Cosmos 2082 Rocket 4.3 17:05:58 10° NNW 17:07:29 11° N 17:09:00 10° NNE
Cosmos 2263 Rocket 2.8 17:02:46 10° S 17:07:50 37° ESE 17:12:14 13° NE
RESURS DK-1 4.2 17:06:30 10° N 17:08:41 14° NNE 17:09:17 13° NE
Cosmos 2151 2.9 17:05:22 10° N 17:09:39 88° E 17:13:55 10° S
Tsikada Rocket 4.3 17:03:34 10° SSW 17:09:47 69° WNW 17:15:59 10° N
Cosmos 2227 Rocket 2.2 17:04:37 10° SSW 17:10:17 86° WNW 17:16:00 10° NNE
Cosmos 2298 Rocket 4.4 17:05:53 10° SW 17:11:09 65° WNW 17:16:29 10° NNE
CZ-2C R/B 3.0 17:10:03 10° S 17:13:34 65° WSW 17:17:10 10° NNW
Cosmos 1238 Rocket 3.5 17:11:52 10° SSW 17:15:28 46° WNW 17:18:39 10° N
CORIOLIS 4.2 17:12:39 10° SSE 17:18:00 89° WSW 17:23:25 10° NNW
Cosmos 1603 4.0 17:13:01 10° NNW 17:18:29 43° NE 17:23:52 10° ESE
Helios 1B rocket 3.7 17:14:46 10° S 17:18:31 42° W 17:22:18 10° NNW
YAOGAN 1 3.8 17:19:24 20° ENE 17:19:49 20° ENE 17:22:57 10° NNE
Cosmos 2251 Rocket 3.9 17:15:09 10° NNW 17:20:14 42° NE 17:25:19 10° SE
CZ-4B R/B 3.5 17:17:25 10° SSE 17:21:00 89° ENE 17:24:39 10° NNW
Cosmos 1812 3.7 17:18:39 10° SE 17:21:40 24° E 17:22:20 23° ENE
SL-16 R/B 4.3 17:18:28 10° N 17:23:40 28° NW 17:28:50 10° WSW
CZ-4B R/B 3.5 17:19:04 10° SSE 17:24:04 59° ENE 17:28:57 10° N
Cosmos 407 Rocket 3.8 17:20:01 10° NNW 17:24:56 42° NE 17:29:48 10° SE
ATLAS 2AS CENTAUR R/B 3.1 17:19:00 10° NW 17:25:44 43° NNE 17:30:16 19° E
USA 305 2.5 17:22:08 10° WNW 17:25:57 89° SSW 17:28:37 19° ESE
Meteor 1-31 Rocket 2.8 17:26:34 10° S 17:30:15 74° WSW 17:33:59 10° NNW
Lacrosse 4 Rocket 1.5 17:26:12 10° NNW 17:30:31 56° NE 17:34:32 11° SE
Cosmos 724 4.5 17:25:01 10° SSW 17:31:05 62° SE 17:35:29 19° NE
SL-16 R/B 3.3 17:26:20 10° NW 17:31:46 48° WSW 17:37:10 10° S
Cosmos 1544 4.4 17:33:43 10° NNW 17:36:46 37° W 17:39:47 10° SSW
IGS 5A 4.5 17:44:25 26° NE 17:44:25 26° NE 17:47:03 10° N
Cosmos 1076 Rocket 4.4 17:41:20 10° NNW 17:45:34 51° W 17:49:47 10° S
Cosmos 1943 3.1 17:40:17 10° NNW 17:45:58 82° ENE 17:51:37 10° SSE
Cosmos 1607 4.0 17:43:31 10° SW 17:49:53 90° W 17:54:20 22° NE
Cosmos 1812 Rocket 3.8 17:46:38 10° SSE 17:50:45 45° E 17:52:19 31° NE
Cosmos 1190 Rocket 4.3 17:48:48 10° NNW 17:53:54 44° NE 17:56:11 28° ESE
Radarsat Rocket 3.8 17:48:19 10° SSE 17:54:07 81° ENE 18:00:15 10° NNW
SL-08 R/B 3.8 17:54:02 35° E 17:54:17 35° E 17:58:31 10° SSE
Cosmos 1602 4.2 17:53:44 10° NNW 17:57:24 60° W 18:01:04 10° S
ADEOS 3.5 17:53:33 10° SSE 17:58:42 64° ENE 18:03:53 10° N
Cosmos 2297 Rocket 3.7 17:54:01 10° WSW 17:59:02 31° NW 18:03:49 11° NNE
Cosmos 2219 3.6 17:55:05 10° SW 18:00:38 61° NW 18:05:03 17° NNE
USA 307 3.3 17:57:46 10° WNW 18:01:32 51° SSW 18:03:12 28° SSE
Cosmos 1666 3.8 17:58:18 10° NNW 18:01:39 41° W 18:04:59 10° SSW
ADEOS Rocket 4.2 18:05:29 21° NNE 18:05:29 21° NNE 18:08:24 10° N
Meteor 1-25 Rocket 4.1 17:59:51 10° NNW 18:05:36 84° ENE 18:11:13 10° SSE
ISS -1.7 18:03:54 10° W 18:06:44 25° SSW 18:08:24 17° SSE
USA 234 3.3 18:03:40 31° ENE 18:07:00 68° SE 18:13:30 10° SW
Cosmos 1553 Rocket 4.3 18:01:59 10° N 18:07:58 41° ENE 18:10:28 29° ESE
BREEZE-M DEB (TANK) 3.2 18:09:55 10° SW 18:10:54 24° SW 18:10:54 24° SW
COSMO-SKYMED 1 2.4 18:11:54 43° NNE 18:13:14 70° ESE 18:17:33 10° S
Cosmos 2344 3.7 18:06:21 10° SSW 18:13:30 49° ESE 18:16:08 35° ENE
Cosmos 2082 3.9 18:12:18 10° SW 18:17:54 69° NW 18:21:19 24° NNE
Helios 1A 3.3 18:20:32 25° N 18:22:52 65° WNW 18:26:58 10° SSW
Cosmos 2026 Rocket 3.9 18:17:09 10° S 18:23:18 64° E 18:29:35 10° NNE
Cosmos 1833 Rocket 4.0 18:18:56 10° NNW 18:22:32 23° NNE 18:22:32 23° NNE
Lacrosse 5 3.6 18:22:54 10° S 18:24:56 18° SSE 18:24:56 18° SSE
Cosmos 2195 Rocket 4.4 18:23:10 10° S 18:29:29 81° E 18:35:47 10° NNE
Cosmos 1140 Rocket 4.2 18:24:58 10° NNW 18:30:01 52° WSW 18:35:01 10° S
SME Rocket 4.2 18:27:19 10° SSE 18:32:54 81° ENE 18:41:41 10° NNW
CZ-4B R/B 2.9 18:34:38 81° NNW 18:34:38 81° NNW 18:38:42 10° NNW
Cosmos 1092 Rocket 3.8 18:30:29 10° S 18:36:36 79° E 18:42:46 10° NNE
Cosmos-2242 3.8 18:35:17 10° SSW 18:39:30 50° WNW 18:41:45 25° N
Nadezhda 4 Rocket 4.5 18:34:07 10° SSW 18:40:11 59° WNW 18:46:15 10° N
CZ-4B R/B 3.9 18:42:41 40° NNE 18:42:41 40° NNE 18:46:35 10° N
ATLAS CENTAUR R/B 3.9 18:37:15 10° WNW 18:41:40 43° SW 18:49:48 10° SSE
Meteor 1-5 Rocket 4.1 18:41:27 10° NNW 18:47:07 90° ENE 18:52:56 10° S
Cosmos 676 Rocket 4.2 18:41:52 10° NNW 18:46:17 56° N 18:46:17 56° N
RESURS DK-1 4.2 18:43:20 10° NNW 18:44:58 22° NNW 18:44:58 22° NNW
Cosmos 2227 4.1 18:43:38 10° SSW 18:49:25 87° ESE 18:50:09 69° NE
Cosmos 2263 Rocket 2.9 18:46:17 10° SW 18:51:39 48° NW 18:53:55 31° N
Cosmos 1844 Rocket 3.7 18:47:29 10° S 18:50:38 33° S 18:50:38 33° S
Cosmos 2082 Rocket 4.1 18:50:12 10° NNW 18:52:13 16° N 18:52:13 16° N
Cosmos 2227 Rocket 4.0 18:50:36 10° W 18:55:09 24° NW 18:58:05 17° N
YAOGAN 1 3.4 18:56:27 47° NW 18:56:27 47° NW 18:59:45 10° NNW
Cosmos 1812 4.4 18:53:23 10° SW 18:56:42 31° WNW 18:56:48 31° WNW
Lacrosse 4 Rocket 3.7 19:05:09 10° WNW 19:08:38 24° WSW 19:10:41 17° SSW
ATLAS 2AS CENTAUR R/B 2.6 19:10:15 10° NW 19:17:13 79° SW 19:17:43 74° S
Cosmos 1818 4.4 19:17:28 10° SW 19:21:04 43° SW 19:21:04 43° SW
USA 234 3.6 19:51:01 60° WNW 19:51:01 60° WNW 19:56:34 10° W
Cosmos 2344 4.2 20:20:39 10° WSW 20:26:10 46° WNW 20:26:10 46° WNW
